QPF
0.00 0.00 0.00 0.00 0.00 0.00 0.00 0.00 0.00 0.00 0.00 0.00 0.00 0.00 0.00 0.00 0.00 0.00 0.00 0.00 0.00 0.00 0.00 0.00 0.00 0.00 0.00 0.00 0.00 0.00 0.00 0.00 0.00 0.00 0.00 0.00 0.00 0.00 0.00 0.00 0.00 0.00 0.00 0.01 0.11
0.00 0.00 0.00 0.00 0.00 0.00 0.00 0.00 0.00 0.00 0.00 0.00 0.00 0.00 0.00 0.00 0.00 0.00 0.00 0.00 0.00 0.00 0.00 0.00 0.00 0.00 0.00 0.00 0.00 0.00 0.00 0.00 0.00 0.00 0.00 0.00 0.00 0.00 0.00 0.00 0.00 0.00 0.00 0.03 0.11
0.00 0.00 0.00 0.00 0.00 0.00 0.00 0.00 0.00 0.00 0.00 0.00 0.00 0.00 0.00 0.00 0.00 0.00 0.00 0.00 0.00 0.00 0.00 0.00 0.00 0.00 0.00 0.00 0.00 0.00 0.00 0.00 0.00 0.00 0.00 0.00 0.00 0.00 0.00 0.00 0.00 0.00 0.00 0.02 0.03
0.00 0.00 0.00 0.00 0.00 0.00 0.00 0.00 0.00 0.00 0.00 0.00 0.00 0.00 0.00 0.00 0.00 0.00 0.00 0.00 0.00 0.00 0.00 0.00 0.00 0.00 0.00 0.00 0.00 0.00 0.00 0.00 0.00 0.00 0.00 0.00 0.00 0.00 0.00 0.00 0.00 0.00 0.00 0.02 0.04
0.00 0.00 0.00 0.00 0.00 0.00 0.00 0.00 0.00 0.00 0.00 0.00 0.00 0.00 0.00 0.00 0.00 0.00 0.00 0.00 0.00 0.00 0.00 0.00 0.00 0.00 0.00 0.00 0.00 0.00 0.00 0.00 0.00 0.00 0.00 0.00 0.00 0.00 0.00 0.00 0.00 0.00 0.00 0.01 0.08
0.00 0.00 0.00 0.00 0.00 0.00 0.00 0.00 0.00 0.00 0.00 0.00 0.00 0.00 0.00 0.00 0.00 0.00 0.00 0.00 0.00 0.00 0.00 0.00 0.00 0.00 0.00 0.00 0.00 0.00 0.00 0.00 0.00 0.00 0.00 0.00 0.00 0.00 0.00 0.00 0.00 0.00 0.00 0.00 0.03
0.00 0.00 0.00 0.00 0.00 0.00 0.00 0.00 0.00 0.00 0.00 0.00 0.00 0.00 0.00 0.00 0.00 0.00 0.00 0.00 0.00 0.00 0.00 0.00 0.00 0.00 0.00 0.00 0.00 0.00 0.00 0.00 0.00 0.00 0.00 0.00 0.00 0.00 0.00 0.00 0.00 0.00 0.00 0.00 0.00
0.00 0.00 0.00 0.00 0.00 0.00 0.00 0.00 0.00 0.00 0.00 0.00 0.00 0.00 0.00 0.00 0.00 0.00 0.00 0.00 0.00 0.00 0.00 0.00 0.00 0.00 0.00 0.00 0.00 0.00 0.00 0.00 0.00 0.00 0.00 0.00 0.00 0.00 0.00 0.00 0.00 0.00 0.00 0.00 0.00
0.00 0.00 0.00 0.00 0.00 0.00 0.00 0.00 0.00 0.00 0.00 0.00 0.00 0.00 0.00 0.00 0.00 0.00 0.00 0.00 0.00 0.00 0.00 0.00 0.00 0.00 0.00 0.00 0.00 0.00 0.00 0.00 0.00 0.00 0.00 0.00 0.00 0.00 0.00 0.00 0.00 0.00 0.00 0.00 0.00
0.00 0.00 0.00 0.00 0.00 0.00 0.00 0.00 0.00 0.00 0.00 0.00 0.00 0.00 0.00 0.00 0.00 0.00 0.00 0.00 0.00 0.00 0.00 0.00 0.00 0.00 0.00 0.00 0.00 0.00 0.00 0.00 0.00 0.00 0.00 0.00 0.00 0.00 0.00 0.00 0.00 0.00 0.00 0.00 0.00
0.00 0.00 0.00 0.00 0.00 0.00 0.00 0.00 0.00 0.00 0.00 0.00 0.00 0.00 0.00 0.00 0.00 0.00 0.00 0.00 0.00 0.00 0.00 0.00 0.00 0.00 0.00 0.00 0.00 0.00 0.00 0.00 0.00 0.00 0.00 0.00 0.00 0.00 0.00 0.00 0.00 0.00 0.00 0.00 0.00
0.00 0.00 0.00 0.00 0.00 0.00 0.00 0.00 0.00 0.00 0.00 0.00 0.00 0.00 0.00 0.00 0.00 0.00 0.00 0.00 0.00 0.00 0.00 0.00 0.00 0.00 0.00 0.00 0.00 0.00 0.00 0.00 0.00 0.00 0.00 0.00 0.00 0.00 0.00 0.00 0.00 0.00 0.00 0.00 0.00
0.00 0.00 0.00 0.00 0.00 0.00 0.00 0.00 0.00 0.00 0.00 0.00 0.00 0.00 0.00 0.00 0.00 0.00 0.00 0.00 0.00 0.00 0.00 0.00 0.00 0.00 0.00 0.00 0.00 0.00 0.00 0.00 0.00 0.00 0.00 0.00 0.00 0.00 0.00 0.00 0.00 0.00 0.00 0.00 0.00
0.00 0.00 0.00 0.00 0.00 0.00 0.00 0.00 0.00 0.00 0.00 0.00 0.00 0.00 0.00 0.00 0.00 0.00 0.00 0.00 0.00 0.00 0.00 0.00 0.00 0.00 0.00 0.00 0.00 0.00 0.00 0.00 0.00 0.00 0.00 0.00 0.00 0.00 0.00 0.00 0.00 0.00 0.00 0.00 0.00
0.00 0.00 0.00 0.00 0.00 0.00 0.00 0.00 0.00 0.00 0.00 0.00 0.00 0.00 0.00 0.00 0.00 0.00 0.00 0.00 0.00 0.00 0.00 0.00 0.00 0.00 0.00 0.00 0.00 0.00 0.00 0.00 0.00 0.00 0.00 0.00 0.00 0.00 0.00 0.00 0.00 0.00 0.00 0.00 0.00
0.00 0.00 0.00 0.00 0.00 0.00 0.00 0.00 0.00 0.00 0.00 0.00 0.00 0.00 0.00 0.00 0.00 0.00 0.00 0.00 0.00 0.00 0.00 0.00 0.00 0.00 0.00 0.00 0.00 0.00 0.00 0.00 0.00 0.00 0.00 0.00 0.00 0.00 0.00 0.00 0.00 0.00 0.00 0.00 0.00
0.00 0.00 0.00 0.00 0.00 0.00 0.00 0.00 0.00 0.00 0.00 0.00 0.00 0.00 0.00 0.00 0.00 0.00 0.00 0.00 0.00 0.00 0.00 0.00 0.00 0.00 0.00 0.00 0.00 0.00 0.00 0.00 0.00 0.00 0.00 0.00 0.00 0.00 0.00 0.00 0.00 0.00 0.00 0.00 0.00
0.00 0.00 0.00 0.00 0.00 0.00 0.00 0.00 0.00 0.00 0.00 0.00 0.00 0.00 0.00 0.00 0.00 0.00 0.00 0.00 0.00 0.00 0.00 0.00 0.00 0.00 0.00 0.00 0.00 0.00 0.00 0.00 0.00 0.00 0.00 0.00 0.00 0.00 0.00 0.00 0.00 0.00 0.00 0.00 0.00
0.00 0.00 0.00 0.00 0.00 0.00 0.00 0.00 0.00 0.00 0.00 0.00 0.00 0.00 0.00 0.00 0.00 0.00 0.00 0.00 0.00 0.00 0.00 0.00 0.00 0.00 0.00 0.00 0.00 0.00 0.00 0.00 0.00 0.00 0.00 0.00 0.00 0.00 0.00 0.00 0.00 0.00 0.00 0.00 0.00
0.00 0.00 0.00 0.00 0.00 0.00 0.00 0.00 0.00 0.00 0.00 0.00 0.00 0.00 0.00 0.00 0.00 0.00 0.00 0.00 0.00 0.00 0.00 0.00 0.00 0.00 0.00 0.00 0.00 0.00 0.00 0.00 0.00 0.00 0.00 0.00 0.00 0.00 0.00 0.00 0.00 0.00 0.00 0.00 0.00
0.00 0.00 0.00 0.00 0.00 0.00 0.00 0.00 0.00 0.00 0.00 0.00 0.00 0.00 0.00 0.00 0.00 0.00 0.00 0.00 0.00 0.00 0.00 0.00 0.00 0.00 0.00 0.00 0.00 0.00 0.00 0.00 0.00 0.00 0.00 0.00 0.00 0.00 0.00 0.00 0.00 0.00 0.00 0.00 0.00
0.00 0.00 0.00 0.00 0.00 0.00 0.00 0.00 0.00 0.00 0.00 0.00 0.00 0.00 0.00 0.00 0.00 0.00 0.00 0.00 0.00 0.00 0.00 0.00 0.00 0.00 0.00 0.00 0.00 0.00 0.00 0.00 0.00 0.00 0.00 0.00 0.00 0.00 0.00 0.00 0.00 0.00 0.00 0.00 0.01
0.00 0.00 0.00 0.00 0.00 0.00 0.00 0.00 0.00 0.00 0.00 0.00 0.00 0.00 0.00 0.00 0.00 0.00 0.00 0.00 0.00 0.00 0.00 0.00 0.00 0.00 0.00 0.00 0.00 0.00 0.00 0.00 0.00 0.00 0.00 0.00 0.00 0.00 0.00 0.00 0.00 0.00 0.00 0.00 0.00
0.00 0.00 0.00 0.00 0.00 0.00 0.00 0.00 0.00 0.00 0.00 0.00 0.00 0.00 0.00 0.00 0.00 0.00 0.00 0.00 0.00 0.00 0.00 0.00 0.00 0.00 0.00 0.00 0.00 0.00 0.00 0.00 0.00 0.00 0.00 0.00 0.00 0.00 0.00 0.00 0.00 0.00 0.00 0.00 0.00
0.00 0.00 0.00 0.00 0.00 0.00 0.00 0.00 0.00 0.00 0.00 0.00 0.00 0.00 0.00 0.00 0.00 0.00 0.00 0.00 0.00 0.00 0.00 0.00 0.00 0.00 0.00 0.00 0.00 0.00 0.00 0.00 0.00 0.00 0.00 0.00 0.00 0.00 0.00 0.00 0.00 0.00 0.00 0.00 0.00
0.00 0.00 0.00 0.00 0.00 0.00 0.00 0.00 0.00 0.00 0.00 0.00 0.00 0.00 0.00 0.00 0.00 0.00 0.00 0.00 0.00 0.00 0.00 0.00 0.00 0.00 0.00 0.00 0.00 0.00 0.00 0.00 0.00 0.00 0.00 0.00 0.00 0.00 0.00 0.00 0.00 0.00 0.00 0.00 0.00
0.00 0.00 0.00 0.00 0.00 0.00 0.00 0.00 0.00 0.00 0.00 0.00 0.00 0.00 0.00 0.00 0.00 0.00 0.00 0.00 0.00 0.00 0.00 0.00 0.00 0.00 0.00 0.00 0.00 0.00 0.00 0.00 0.00 0.00 0.00 0.00 0.00 0.00 0.00 0.00 0.00 0.00 0.00 0.00 0.00
MSLP
1021.24 1020.98 1020.62 1020.39 1020.09 1019.83 1019.54 1019.27 1019.02 1018.76 1018.51 1018.22 1017.91 1017.65 1017.39 1017.10 1016.62 1016.22 1016.17 1016.09 1015.83 1015.55 1015.51 1015.48 1015.41 1015.52 1015.46 1015.83 1016.10 1016.33 1017.15 1017.05 1016.59 1016.02 1015.04 1014.06 1013.80 1013.20 1012.55 1012.33 1011.37 1010.12 1009.55 1009.01 1008.37
1021.27 1020.92 1020.60 1020.30 1020.08 1019.72 1019.45 1019.22 1019.01 1018.78 1018.55 1018.26 1017.94 1017.65 1017.41 1017.17 1017.00 1016.35 1015.72 1015.57 1015.51 1015.48 1015.83 1016.00 1016.05 1016.04 1016.11 1016.16 1016.36 1016.72 1016.95 1016.37 1015.63 1015.07 1014.74 1014.16 1013.85 1013.42 1012.85 1012.07 1011.20 1010.09 1009.18 1008.55 1008.13
1021.36 1020.94 1020.55 1020.19 1019.88 1019.61 1019.29 1019.01 1018.79 1018.63 1018.46 1018.24 1018.01 1017.68 1017.37 1017.23 1017.13 1015.80 1015.40 1015.40 1015.44 1015.56 1015.85 1016.08 1016.32 1016.42 1016.51 1016.38 1016.45 1016.62 1016.52 1015.85 1015.03 1014.72 1014.41 1014.05 1013.60 1013.21 1012.93 1011.97 1010.84 1010.17 1009.45 1008.84 1008.49
1021.43 1021.01 1020.60 1020.17 1019.78 1019.41 1019.09 1018.79 1018.55 1018.32 1018.19 1018.02 1017.84 1017.62 1017.33 1017.34 1016.88 1015.46 1015.30 1015.34 1015.47 1015.65 1015.87 1016.06 1016.31 1016.62 1016.85 1016.74 1016.60 1016.75 1016.08 1015.60 1014.71 1014.31 1014.12 1013.82 1013.37 1012.90 1012.49 1011.54 1010.67 1010.01 1009.54 1009.00 1008.61
1021.47 1021.04 1020.57 1020.11 1019.71 1019.25 1018.86 1018.52 1018.28 1018.08 1017.98 1017.86 1017.72 1017.61 1017.36 1017.19 1015.96 1015.17 1015.21 1015.36 1015.58 1015.78 1016.05 1016.27 1016.56 1016.96 1017.19 1017.07 1016.87 1016.50 1015.96 1015.35 1014.54 1014.14 1013.83 1013.50 1013.19 1012.76 1011.91 1011.05 1010.30 1009.61 1009.27 1008.82 1008.40
1021.53 1021.03 1020.53 1020.02 1019.51 1019.04 1018.62 1018.24 1017.91 1017.79 1017.75 1017.67 1017.67 1017.65 1017.59 1016.97 1015.19 1015.17 1015.30 1015.56 1015.75 1015.92 1016.05 1016.22 1016.59 1016.92 1017.30 1017.28 1017.15 1016.26 1015.82 1015.12 1014.21 1013.50 1013.27 1013.05 1012.46 1012.66 1011.32 1009.98 1009.78 1009.19 1008.79 1008.31 1008.21
1021.64 1021.12 1020.53 1019.92 1019.36 1018.76 1018.26 1017.87 1017.63 1017.32 1017.28 1017.37 1017.43 1017.67 1017.52 1015.94 1015.07 1015.22 1015.37 1015.59 1015.73 1015.90 1016.09 1016.23 1016.37 1016.76 1017.15 1017.26 1016.87 1016.43 1015.98 1014.89 1013.64 1013.25 1012.89 1012.45 1012.29 1011.84 1010.45 1010.02 1009.76 1009.26 1008.77 1008.10 1008.02
1021.76 1021.18 1020.62 1019.89 1019.15 1018.54 1018.00 1017.55 1017.18 1017.10 1016.90 1016.89 1017.19 1017.50 1016.57 1015.27 1015.26 1015.34 1015.44 1015.53 1015.65 1015.88 1016.07 1016.13 1016.34 1016.70 1017.00 1016.98 1016.74 1016.71 1016.26 1015.68 1013.93 1013.19 1012.54 1012.43 1011.82 1010.91 1010.12 1009.88 1009.54 1009.23 1008.74 1008.27 1007.96
1021.86 1021.27 1020.57 1019.85 1019.11 1018.28 1017.69 1017.17 1016.90 1016.77 1016.97 1016.86 1017.18 1017.31 1016.15 1015.24 1015.35 1015.03 1015.23 1015.53 1015.61 1015.82 1015.95 1016.07 1016.37 1016.85 1017.09 1017.31 1017.39 1017.15 1016.87 1015.88 1014.81 1013.31 1012.79 1012.67 1011.50 1010.52 1009.97 1009.84 1009.47 1009.12 1008.71 1008.39 1007.78
1021.94 1021.32 1020.62 1019.84 1019.00 1018.03 1017.28 1016.92 1016.78 1016.91 1017.09 1017.08 1017.00 1017.42 1015.84 1015.13 1015.01 1015.07 1015.19 1015.43 1015.68 1015.87 1016.16 1016.34 1016.86 1017.18 1017.47 1017.66 1017.84 1017.57 1017.09 1016.03 1015.38 1013.77 1013.16 1012.59 1011.24 1009.94 1009.52 1009.50 1009.11 1008.80 1008.63 1008.39 1007.90
1021.92 1021.30 1020.58 1019.74 1018.91 1018.18 1017.38 1017.23 1017.54 1017.44 1017.19 1016.28 1015.96 1015.57 1015.09 1014.79 1014.78 1015.07 1015.14 1015.45 1015.74 1016.16 1016.54 1016.76 1017.34 1017.25 1016.79 1016.97 1016.91 1017.17 1016.99 1016.24 1014.75 1013.51 1013.28 1012.29 1011.04 1009.11 1008.40 1008.74 1008.44 1008.17 1008.23 1008.01 1007.63
1021.98 1021.32 1020.58 1019.74 1018.87 1018.08 1017.77 1018.30 1018.51 1018.83 1017.43 1015.77 1015.58 1015.41 1014.97 1014.68 1014.92 1015.00 1015.29 1015.85 1016.05 1016.32 1016.64 1017.22 1016.79 1015.81 1016.06 1016.27 1016.60 1016.73 1016.66 1015.64 1014.16 1013.48 1013.20 1011.86 1010.17 1008.37 1007.72 1007.87 1007.70 1007.67 1007.70 1007.54 1007.28
1022.06 1021.35 1020.52 1019.61 1018.77 1018.31 1018.56 1018.58 1018.60 1018.76 1018.48 1015.53 1014.92 1014.50 1014.30 1014.59 1014.69 1014.72 1015.35 1015.62 1016.01 1016.26 1016.45 1016.69 1015.48 1015.24 1015.57 1015.73 1016.12 1016.02 1016.02 1015.30 1014.78 1013.65 1012.97 1012.24 1010.21 1008.78 1007.55 1007.24 1007.18 1007.13 1006.98 1006.95 1006.83
1021.90 1021.26 1020.45 1019.48 1018.91 1019.19 1018.91 1018.59 1018.61 1018.78 1018.80 1015.63 1014.69 1014.01 1014.22 1014.38 1014.68 1014.53 1014.91 1015.53 1015.89 1016.06 1016.09 1015.96 1015.04 1014.97 1015.13 1015.27 1015.51 1015.44 1014.62 1014.83 1014.78 1014.71 1014.58 1013.60 1012.59 1009.79 1008.29 1007.35 1006.76 1006.52 1006.75 1006.49 1006.38
1021.75 1021.02 1020.48 1020.13 1019.66 1019.32 1019.11 1018.77 1018.66 1018.81 1018.22 1015.20 1014.37 1013.99 1014.16 1014.63 1014.61 1014.67 1014.87 1015.22 1015.61 1015.81 1016.29 1015.11 1014.80 1014.76 1014.78 1014.40 1014.53 1014.37 1014.21 1014.54 1014.67 1014.99 1015.03 1014.28 1014.00 1009.81 1008.83 1007.65 1006.79 1006.30 1006.18 1006.18 1006.18
1021.40 1020.57 1020.08 1019.78 1019.82 1019.12 1018.83 1018.65 1018.81 1019.03 1017.07 1014.80 1014.25 1014.14 1014.45 1014.49 1014.44 1014.75 1015.03 1015.22 1015.54 1015.72 1015.63 1014.97 1014.52 1014.40 1013.76 1013.47 1013.65 1013.78 1014.13 1014.41 1014.83 1015.36 1015.30 1014.24 1014.03 1010.39 1008.79 1007.55 1006.77 1006.13 1005.85 1005.82 1005.84
1020.86 1019.93 1019.52 1019.81 1019.80 1019.23 1019.06 1019.28 1019.69 1018.41 1015.65 1015.07 1014.74 1014.57 1014.71 1014.66 1014.63 1014.83 1015.18 1015.48 1015.70 1015.93 1015.49 1014.71 1014.18 1013.55 1013.30 1013.48 1013.54 1013.91 1014.59 1015.16 1015.43 1015.51 1014.99 1014.08 1013.80 1010.16 1007.90 1007.19 1006.91 1006.53 1005.83 1005.54 1005.51
1020.34 1019.93 1019.79 1019.64 1019.44 1019.33 1019.37 1019.76 1019.92 1017.57 1016.44 1015.46 1015.05 1014.84 1014.93 1014.71 1014.76 1014.98 1015.16 1015.25 1015.05 1015.60 1015.97 1015.45 1013.99 1013.22 1012.86 1012.95 1013.12 1013.86 1014.54 1015.53 1016.03 1015.78 1015.05 1014.12 1012.61 1009.02 1007.18 1006.69 1006.43 1006.35 1006.04 1005.53 1004.99
1020.26 1020.18 1020.20 1020.16 1019.76 1019.46 1019.90 1020.61 1018.94 1018.18 1017.46 1016.58 1015.67 1015.38 1015.15 1015.07 1015.22 1015.18 1015.24 1015.10 1014.73 1014.99 1015.52 1015.28 1014.15 1013.02 1012.94 1012.84 1013.13 1013.92 1014.35 1014.61 1015.27 1015.61 1015.40 1013.14 1011.14 1008.44 1006.92 1006.56 1006.40 1006.24 1006.02 1005.74 1004.96
1021.26 1020.91 1020.79 1020.18 1019.98 1020.10 1020.48 1020.23 1019.42 1018.65 1018.01 1017.19 1016.77 1016.31 1016.16 1015.77 1015.84 1015.60 1015.29 1014.83 1014.83 1014.85 1014.73 1014.83 1014.47 1013.13 1012.79 1012.86 1013.21 1013.54 1013.92 1014.64 1015.33 1015.53 1014.87 1012.46 1011.12 1009.32 1007.54 1006.89 1006.42 1006.35 1006.04 1005.69 1005.16
1021.77 1021.36 1020.60 1019.99 1019.83 1020.65 1021.42 1021.27 1020.26 1019.43 1019.02 1018.22 1017.69 1017.39 1017.15 1017.01 1016.60 1016.37 1015.89 1015.62 1015.68 1015.29 1015.05 1015.09 1015.27 1013.99 1013.45 1013.17 1013.04 1013.82 1014.05 1014.50 1014.88 1014.79 1014.36 1012.84 1009.81 1008.10 1007.15 1006.70 1006.61 1006.27 1006.04 1005.68 1005.17
1022.65 1022.46 1021.15 1020.25 1021.18 1022.51 1022.62 1022.26 1021.27 1020.52 1020.31 1019.76 1019.19 1018.93 1018.80 1018.32 1017.85 1017.36 1016.91 1017.05 1016.80 1016.28 1015.96 1015.56 1015.40 1014.93 1013.65 1012.80 1012.76 1013.10 1013.45 1013.92 1014.50 1014.47 1013.84 1012.64 1007.93 1005.97 1005.98 1006.07 1006.22 1005.96 1005.70 1005.39 1005.09
1024.49 1023.98 1022.07 1021.45 1023.91 1024.61 1024.03 1023.22 1022.71 1022.12 1022.26 1021.83 1021.60 1021.40 1020.84 1020.15 1019.48 1018.53 1018.20 1017.82 1017.90 1017.77 1017.71 1016.64 1016.04 1015.68 1014.16 1013.62 1013.19 1013.17 1013.36 1013.56 1013.89 1013.86 1012.84 1012.14 1007.62 1005.63 1005.45 1005.71 1005.73 1005.89 1005.56 1005.29 1005.19
1025.14 1025.53 1025.25 1025.18 1026.56 1026.56 1026.27 1025.21 1024.45 1023.88 1023.85 1023.70 1023.77 1023.14 1022.70 1022.01 1021.19 1020.62 1020.00 1019.18 1019.00 1018.75 1017.96 1017.19 1016.71 1016.32 1015.47 1014.42 1014.07 1013.57 1013.17 1013.29 1013.54 1013.22 1011.97 1009.93 1007.41 1005.17 1004.35 1005.24 1004.60 1004.78 1004.87 1005.03 1005.14
1027.15 1028.69 1028.93 1028.46 1027.85 1027.76 1027.27 1026.77 1026.21 1025.95 1025.25 1024.91 1024.84 1025.52 1025.30 1024.18 1023.02 1022.02 1021.68 1021.21 1020.07 1019.61 1018.89 1018.56 1017.71 1016.83 1016.00 1015.48 1014.67 1013.59 1012.96 1012.89 1012.75 1011.70 1011.67 1008.75 1007.62 1004.79 1003.89 1004.36 1004.07 1004.06 1004.28 1004.80 1004.96
1029.10 1029.66 1029.44 1029.43 1029.00 1028.47 1027.72 1027.72 1027.57 1027.40 1027.07 1026.09 1026.28 1026.26 1025.89 1025.38 1024.67 1023.91 1023.59 1023.66 1021.85 1020.62 1020.29 1019.55 1018.25 1017.53 1016.18 1015.80 1014.71 1012.86 1012.03 1011.66 1010.59 1010.26 1009.50 1008.17 1006.55 1003.75 1004.32 1004.04 1003.95 1003.71 1004.06 1004.60 1004.69
1029.79 1029.99 1029.90 1029.83 1029.39 1029.03 1028.86 1028.49 1028.27 1028.33 1027.29 1026.94 1026.75 1026.30 1025.64 1025.07 1024.77 1024.26 1023.56 1022.95 1021.84 1021.24 1021.26 1020.61 1019.50 1018.59 1015.78 1015.72 1014.41 1011.99 1009.88 1009.51 1008.61 1008.19 1007.65 1007.16 1005.38 1004.87 1004.24 1004.08 1003.68 1003.32 1003.65 1003.89 1004.52
Thickness
5639 5639 5640 5640 5640 5640 5640 5640 5639 5639 5638 5638 5638 5637 5636 5635 5636 5636 5631 5629 5626 5623 5619 5614 5608 5599 5593 5581 5574 5567 5548 5542 5549 5548 5556 5568 5565 5577 5586 5595 5612 5632 5646 5665 5685
5639 5639 5639 5640 5639 5640 5640 5639 5638 5637 5636 5636 5635 5634 5633 5632 5630 5630 5633 5629 5625 5619 5612 5603 5595 5588 5579 5575 5566 5554 5540 5547 5554 5555 5553 5558 5562 5567 5574 5586 5604 5624 5641 5663 5678
5638 5639 5639 5640 5640 5639 5639 5639 5638 5636 5634 5633 5632 5632 5631 5629 5626 5631 5632 5628 5622 5615 5608 5599 5591 5584 5575 5571 5564 5554 5542 5550 5555 5552 5552 5554 5558 5567 5568 5580 5600 5614 5628 5650 5665
5638 5638 5639 5639 5639 5640 5640 5639 5638 5637 5634 5632 5630 5629 5628 5625 5617 5631 5629 5624 5617 5610 5604 5596 5588 5578 5569 5563 5559 5548 5548 5549 5552 5552 5550 5550 5557 5561 5568 5584 5595 5609 5622 5640 5652
5636 5637 5638 5639 5640 5640 5640 5639 5639 5637 5634 5631 5629 5626 5625 5620 5623 5631 5625 5620 5613 5607 5598 5591 5582 5572 5563 5556 5551 5545 5548 5548 5550 5546 5547 5550 5551 5555 5566 5579 5586 5602 5615 5631 5645
5633 5635 5636 5638 5639 5640 5640 5640 5639 5636 5633 5631 5627 5623 5621 5614 5632 5628 5622 5616 5609 5603 5597 5591 5580 5570 5558 5551 5547 5549 5545 5547 5550 5551 5551 5551 5555 5552 5568 5579 5586 5600 5612 5630 5638
5630 5632 5634 5636 5638 5639 5641 5641 5639 5638 5634 5630 5626 5621 5617 5620 5630 5625 5619 5612 5606 5600 5593 5588 5581 5570 5559 5548 5549 5546 5539 5547 5554 5554 5550 5553 5552 5551 5568 5574 5580 5592 5604 5623 5632
5626 5628 5630 5633 5636 5639 5640 5640 5640 5636 5634 5631 5625 5619 5618 5629 5626 5621 5616 5611 5605 5598 5591 5586 5579 5569 5559 5552 5549 5543 5543 5530 5552 5555 5556 5553 5548 5557 5566 5572 5579 5585 5598 5612 5628
5622 5624 5627 5630 5633 5637 5639 5639 5638 5635 5630 5627 5622 5617 5618 5626 5620 5621 5615 5607 5603 5596 5590 5585 5576 5566 5557 5547 5533 5534 5528 5538 5534 5551 5552 5550 5550 5559 5563 5566 5573 5581 5592 5605 5621
5617 5619 5622 5626 5630 5635 5638 5637 5635 5630 5625 5621 5619 5612 5621 5620 5620 5616 5612 5606 5598 5593 5585 5579 5563 5555 5545 5540 5523 5511 5528 5535 5527 5546 5546 5543 5551 5563 5566 5569 5575 5583 5589 5598 5613
5613 5615 5617 5621 5625 5628 5632 5629 5624 5624 5623 5627 5626 5623 5624 5623 5619 5612 5609 5601 5595 5587 5579 5573 5561 5553 5559 5547 5549 5538 5529 5525 5541 5550 5543 5543 5555 5571 5577 5573 5581 5587 5590 5597 5609
5607 5609 5612 5616 5619 5622 5622 5614 5610 5603 5610 5623 5619 5616 5617 5619 5611 5607 5603 5593 5588 5582 5576 5563 5558 5570 5566 5560 5549 5541 5531 5534 5545 5550 5549 5554 5566 5579 5582 5581 5587 5590 5592 5595 5604
5599 5602 5605 5609 5613 5614 5609 5607 5602 5596 5589 5619 5621 5620 5619 5613 5607 5604 5597 5590 5584 5580 5572 5564 5580 5577 5569 5564 5555 5546 5538 5539 5542 5548 5550 5552 5560 5569 5586 5588 5589 5590 5593 5596 5599
5593 5595 5598 5602 5604 5598 5599 5597 5594 5589 5562 5613 5615 5617 5611 5608 5601 5602 5594 5587 5581 5576 5574 5564 5576 5574 5566 5560 5554 5544 5554 5548 5546 5537 5521 5545 5530 5555 5575 5581 5588 5590 5584 5589 5593
5585 5589 5590 5589 5589 5591 5589 5588 5586 5581 5543 5610 5607 5609 5603 5598 5596 5595 5589 5583 5575 5576 5570 5573 5576 5570 5564 5565 5558 5556 5559 5550 5549 5538 5525 5533 5506 5557 5571 5581 5589 5593 5593 5587 5585
5579 5583 5585 5584 5582 5584 5582 5581 5576 5555 5555 5597 5599 5596 5592 5590 5589 5583 5580 5578 5571 5567 5562 5565 5568 5568 5568 5570 5563 5561 5554 5547 5531 5523 5513 5537 5519 5555 5566 5582 5584 5588 5589 5589 5586
5576 5581 5581 5575 5574 5575 5573 5566 5539 5531 5597 5592 5589 5584 5582 5582 5580 5574 5570 5565 5560 5556 5562 5567 5567 5569 5570 5565 5562 5556 5537 5519 5523 5505 5525 5536 5515 5557 5578 5578 5576 5577 5581 5580 5578
5573 5573 5571 5569 5569 5566 5561 5555 5543 5569 5573 5579 5579 5576 5571 5574 5572 5568 5564 5560 5558 5556 5542 5533 5556 5566 5567 5565 5560 5549 5543 5509 5518 5525 5531 5527 5529 5563 5581 5579 5572 5571 5569 5572 5574
5566 5565 5561 5557 5557 5558 5548 5512 5543 5558 5557 5557 5563 5564 5565 5564 5561 5559 5556 5558 5561 5548 5541 5534 5553 5566 5560 5561 5556 5544 5537 5540 5533 5511 5505 5535 5549 5571 5581 5579 5574 5568 5567 5566 5575
5550 5549 5547 5549 5546 5541 5531 5535 5542 5546 5541 5547 5548 5551 5547 5549 5548 5550 5550 5558 5556 5543 5548 5546 5536 5561 5561 5557 5550 5545 5541 5527 5501 5515 5528 5542 5537 5545 5565 5574 5572 5567 5563 5562 5567
5535 5537 5540 5540 5536 5523 5500 5509 5522 5527 5524 5533 5535 5533 5536 5532 5537 5537 5543 5545 5539 5543 5541 5539 5522 5545 5551 5545 5540 5530 5529 5527 5517 5512 5516 5518 5550 5553 5566 5570 5569 5562 5558 5559 5562
5514 5518 5522 5524 5507 5483 5494 5491 5506 5509 5501 5506 5512 5514 5512 5517 5518 5531 5530 5526 5512 5522 5531 5529 5510 5505 5542 5550 5544 5536 5527 5521 5516 5526 5501 5508 5557 5584 5573 5567 5562 5561 5559 5559 5561
5485 5481 5500 5502 5468 5463 5468 5478 5484 5481 5473 5478 5477 5476 5481 5489 5502 5514 5505 5508 5496 5497 5497 5511 5504 5486 5529 5536 5539 5536 5529 5525 5511 5505 5515 5508 5559 5576 5567 5560 5558 5554 5555 5554 5559
5472 5457 5458 5458 5443 5442 5439 5451 5455 5456 5452 5453 5448 5455 5456 5458 5473 5472 5479 5486 5482 5484 5500 5499 5491 5505 5506 5525 5523 5527 5531 5520 5511 5491 5522 5537 5556 5583 5585 5572 5576 5564 5558 5552 5551
5438 5430 5420 5413 5423 5417 5422 5426 5432 5423 5429 5431 5434 5418 5418 5427 5442 5453 5454 5453 5469 5472 5467 5466 5468 5478 5480 5484 5492 5502 5510 5513 5503 5523 5501 5545 5547 5578 5581 5573 5577 5572 5561 5552 5552
5411 5404 5404 5399 5402 5403 5409 5404 5405 5402 5404 5413 5406 5404 5404 5403 5415 5415 5416 5414 5433 5451 5440 5444 5462 5460 5472 5479 5483 5494 5509 5513 5525 5526 5520 5535 5541 5583 5569 5569 5563 5562 5555 5548 5554
5399 5395 5394 5393 5391 5395 5389 5389 5389 5384 5395 5396 5391 5389 5391 5399 5401 5404 5409 5413 5422 5423 5419 5423 5427 5440 5460 5467 5470 5479 5516 5522 5534 5538 5538 5533 5554 5559 5560 5556 5559 5561 5554 5552 5548